Time,TemperatureF,DewpointF,PressureIn,WindDirection,WindDirectionDegrees,WindSpeedMPH,WindSpeedGustMPH,Humidity,HourlyPrecipIn,Conditions,Clouds,dailyrainin,SoftwareType,DateUTC
2013-02-05 00:02:00,23.0,21.0,29.90,NW,304,0.0,5.0,92,0.00,,,0.00,,2013-02-05 05:02:00,
2013-02-05 00:12:00,23.0,21.0,29.90,NW,304,0.0,5.0,92,0.00,,,0.00,,2013-02-05 05:12:00,
2013-02-05 00:22:00,23.0,21.0,29.89,NW,307,0.0,2.0,91,0.00,,,0.00,,2013-02-05 05:22:00,
2013-02-05 00:32:00,23.0,21.0,29.89,NW,307,0.0,2.0,92,0.00,,,0.00,,2013-02-05 05:32:00,
2013-02-05 00:42:00,23.0,21.0,29.89,NW,307,0.0,2.0,92,0.00,,,0.00,,2013-02-05 05:42:00,
2013-02-05 00:52:00,22.0,20.0,29.90,NW,307,0.0,2.0,92,0.00,,,0.00,,2013-02-05 05:52:00,
2013-02-05 01:02:00,22.0,20.0,29.89,NW,307,0.0,2.0,92,0.00,,,0.00,,2013-02-05 06:02:00,
2013-02-05 01:11:00,22.0,20.0,29.89,NW,307,0.0,2.0,92,0.00,,,0.00,,2013-02-05 06:11:00,
2013-02-05 01:21:00,22.0,20.0,29.89,NW,307,0.0,0.0,92,0.00,,,0.00,,2013-02-05 06:21:00,
2013-02-05 01:32:00,22.0,20.0,29.89,NW,307,1.0,3.0,93,0.00,,,0.00,,2013-02-05 06:32:00,
2013-02-05 01:42:00,22.0,20.0,29.89,NW,307,1.0,3.0,93,0.00,,,0.00,,2013-02-05 06:42:00,
2013-02-05 01:52:00,22.0,20.0,29.89,NW,307,0.0,1.0,92,0.00,,,0.00,,2013-02-05 06:52:00,
2013-02-05 02:01:00,21.0,19.0,29.90,NW,307,0.0,1.0,92,0.00,,,0.00,,2013-02-05 07:01:00,
2013-02-05 02:11:00,21.0,19.0,29.90,NW,307,0.0,1.0,92,0.00,,,0.00,,2013-02-05 07:11:00,
2013-02-05 02:22:00,21.0,19.0,29.91,NW,307,0.0,0.0,93,0.00,,,0.00,,2013-02-05 07:22:00,
2013-02-05 02:32:00,21.0,20.0,29.91,NW,307,0.0,1.0,94,0.00,,,0.00,,2013-02-05 07:32:00,
2013-02-05 02:42:00,21.0,20.0,29.91,NW,307,0.0,1.0,94,0.00,,,0.00,,2013-02-05 07:42:00,
2013-02-05 02:52:00,21.0,20.0,29.90,NW,307,0.0,0.0,94,0.00,,,0.00,,2013-02-05 07:52:00,
2013-02-05 03:01:00,20.0,19.0,29.90,NW,307,0.0,0.0,94,0.00,,,0.00,,2013-02-05 08:01:00,
2013-02-05 03:11:00,20.0,19.0,29.90,NW,307,0.0,0.0,94,0.00,,,0.00,,2013-02-05 08:11:00,
2013-02-05 03:21:00,20.0,19.0,29.90,NW,307,0.0,0.0,94,0.00,,,0.00,,2013-02-05 08:21:00,
2013-02-05 03:31:00,20.0,18.0,29.90,NW,307,0.0,1.0,93,0.00,,,0.00,,2013-02-05 08:31:00,
2013-02-05 03:42:00,20.0,18.0,29.90,NW,307,0.0,1.0,93,0.00,,,0.00,,2013-02-05 08:42:00,
2013-02-05 03:52:00,19.0,17.0,29.90,NW,307,0.0,0.0,93,0.00,,,0.00,,2013-02-05 08:52:00,
2013-02-05 04:02:00,19.0,18.0,29.90,NW,307,0.0,0.0,94,0.00,,,0.00,,2013-02-05 09:02:00,
2013-02-05 04:11:00,19.0,18.0,29.89,SSW,202,1.0,2.0,94,0.00,,,0.00,,2013-02-05 09:11:00,
2013-02-05 04:22:00,19.0,18.0,29.89,SSW,202,1.0,2.0,94,0.00,,,0.00,,2013-02-05 09:22:00,
2013-02-05 04:32:00,18.0,16.0,29.89,SSW,202,0.0,0.0,93,0.00,,,0.00,,2013-02-05 09:32:00,
2013-02-05 04:42:00,18.0,16.0,29.89,SSW,202,0.0,0.0,93,0.00,,,0.00,,2013-02-05 09:42:00,
2013-02-05 04:52:00,18.0,17.0,29.89,SSW,202,0.0,1.0,94,0.00,,,0.00,,2013-02-05 09:52:00,
2013-02-05 05:02:00,18.0,16.0,29.89,SSW,202,0.0,0.0,93,0.00,,,0.00,,2013-02-05 10:02:00,
2013-02-05 05:11:00,18.0,16.0,29.88,SSW,202,1.0,2.0,93,0.00,,,0.00,,2013-02-05 10:11:00,
2013-02-05 05:21:00,18.0,16.0,29.88,SSW,202,1.0,2.0,93,0.00,,,0.00,,2013-02-05 10:21:00,
2013-02-05 05:32:00,19.0,18.0,29.88,SE,145,0.0,1.0,94,0.00,,,0.00,,2013-02-05 10:32:00,
2013-02-05 05:42:00,19.0,18.0,29.88,SE,145,0.0,1.0,94,0.00,,,0.00,,2013-02-05 10:42:00,
2013-02-05 05:52:00,18.0,16.0,29.88,SE,145,0.0,1.0,93,0.00,,,0.00,,2013-02-05 10:52:00,
2013-02-05 06:01:00,18.0,16.0,29.88,SE,145,0.0,0.0,93,0.00,,,0.00,,2013-02-05 11:01:00,
2013-02-05 06:11:00,18.0,16.0,29.88,SE,145,0.0,0.0,93,0.00,,,0.00,,2013-02-05 11:11:00,
2013-02-05 06:22:00,18.0,16.0,29.88,SE,145,0.0,2.0,93,0.00,,,0.00,,2013-02-05 11:22:00,
2013-02-05 06:32:00,18.0,17.0,29.90,SSE,157,0.0,3.0,94,0.00,,,0.00,,2013-02-05 11:32:00,
2013-02-05 06:42:00,18.0,17.0,29.90,SSE,157,0.0,3.0,94,0.00,,,0.00,,2013-02-05 11:42:00,
2013-02-05 06:52:00,18.0,16.0,29.90,SSE,157,0.0,2.0,93,0.00,,,0.00,,2013-02-05 11:52:00,
2013-02-05 07:02:00,18.0,16.0,29.89,SSE,157,0.0,2.0,93,0.00,,,0.00,,2013-02-05 12:02:00,
2013-02-05 07:12:00,18.0,16.0,29.89,SSE,157,0.0,2.0,93,0.00,,,0.00,,2013-02-05 12:12:00,
2013-02-05 07:22:00,17.0,15.0,29.88,SSE,157,2.0,3.0,93,0.00,,,0.00,,2013-02-05 12:22:00,
2013-02-05 07:32:00,17.0,15.0,29.89,SSE,157,0.0,1.0,93,0.00,,,0.00,,2013-02-05 12:32:00,
2013-02-05 07:42:00,17.0,15.0,29.89,SSE,157,0.0,1.0,93,0.00,,,0.00,,2013-02-05 12:42:00,
2013-02-05 07:52:00,16.0,14.0,29.90,SSE,157,0.0,0.0,92,0.00,,,0.00,,2013-02-05 12:52:00,
2013-02-05 08:02:00,16.0,14.0,29.91,SSE,157,0.0,1.0,92,0.00,,,0.00,,2013-02-05 13:02:00,
2013-02-05 08:12:00,16.0,14.0,29.91,SSE,157,0.0,1.0,92,0.00,,,0.00,,2013-02-05 13:12:00,
2013-02-05 08:22:00,16.0,14.0,29.90,SSE,163,1.0,3.0,92,0.00,,,0.00,,2013-02-05 13:22:00,
2013-02-05 08:32:00,16.0,14.0,29.90,SSE,163,1.0,3.0,93,0.00,,,0.00,,2013-02-05 13:32:00,
2013-02-05 08:42:00,16.0,14.0,29.90,SSE,163,1.0,3.0,93,0.00,,,0.00,,2013-02-05 13:42:00,
2013-02-05 08:52:00,17.0,15.0,29.91,SSE,163,0.0,1.0,93,0.00,,,0.00,,2013-02-05 13:52:00,
2013-02-05 09:01:00,17.0,15.0,29.91,SSE,163,0.0,0.0,93,0.00,,,0.00,,2013-02-05 14:01:00,
2013-02-05 09:12:00,17.0,15.0,29.91,SSE,163,0.0,0.0,93,0.00,,,0.00,,2013-02-05 14:12:00,
2013-02-05 09:21:00,17.0,15.0,29.91,SSE,163,0.0,1.0,93,0.00,,,0.00,,2013-02-05 14:21:00,
2013-02-05 09:32:00,18.0,16.0,29.90,SSE,163,0.0,2.0,93,0.00,,,0.00,,2013-02-05 14:32:00,
2013-02-05 09:42:00,18.0,16.0,29.90,SSE,163,0.0,2.0,93,0.00,,,0.00,,2013-02-05 14:42:00,
2013-02-05 09:52:00,18.0,16.0,29.90,SSE,165,2.0,3.0,93,0.00,,,0.00,,2013-02-05 14:52:00,
2013-02-05 10:02:00,19.0,17.0,29.90,South,171,1.0,5.0,93,0.00,,,0.00,,2013-02-05 15:02:00,
2013-02-05 10:11:00,19.0,17.0,29.90,South,171,1.0,5.0,93,0.00,,,0.00,,2013-02-05 15:11:00,
2013-02-05 10:21:00,20.0,19.0,29.89,SSE,158,3.0,5.0,94,0.00,,,0.00,,2013-02-05 15:21:00,
2013-02-05 10:32:00,22.0,21.0,29.89,South,177,1.0,6.0,94,0.00,,,0.00,,2013-02-05 15:32:00,
2013-02-05 10:42:00,22.0,21.0,29.89,South,177,1.0,6.0,94,0.00,,,0.00,,2013-02-05 15:42:00,
2013-02-05 10:52:00,22.0,21.0,29.89,SSW,213,7.0,10.0,94,0.00,,,0.00,,2013-02-05 15:52:00,
2013-02-05 11:01:00,23.0,22.0,29.88,South,175,4.0,10.0,94,0.00,,,0.00,,2013-02-05 16:01:00,
2013-02-05 11:12:00,23.0,22.0,29.88,South,175,4.0,10.0,94,0.00,,,0.00,,2013-02-05 16:12:00,
2013-02-05 11:22:00,23.0,22.0,29.88,SSE,150,7.0,10.0,94,0.00,,,0.00,,2013-02-05 16:22:00,
2013-02-05 11:32:00,24.0,23.0,29.87,South,169,10.0,15.0,94,0.00,,,0.00,,2013-02-05 16:32:00,
2013-02-05 11:42:00,24.0,23.0,29.87,South,169,10.0,15.0,94,0.00,,,0.00,,2013-02-05 16:42:00,
2013-02-05 11:52:00,24.0,22.0,29.86,South,178,9.0,15.0,92,0.00,,,0.00,,2013-02-05 16:52:00,
2013-02-05 12:01:00,25.0,22.0,29.86,SE,146,6.0,12.0,90,0.00,,,0.00,,2013-02-05 17:01:00,
2013-02-05 12:12:00,25.0,22.0,29.86,SE,146,6.0,12.0,90,0.00,,,0.00,,2013-02-05 17:12:00,
2013-02-05 12:22:00,26.0,23.0,29.86,SSW,210,7.0,12.0,87,0.00,,,0.00,,2013-02-05 17:22:00,
2013-02-05 12:32:00,26.0,22.0,29.85,SSE,148,6.0,13.0,85,0.00,,,0.00,,2013-02-05 17:32:00,
2013-02-05 12:42:00,26.0,22.0,29.85,SSE,148,6.0,13.0,85,0.00,,,0.00,,2013-02-05 17:42:00,
2013-02-05 12:52:00,27.0,23.0,29.84,SSE,152,7.0,12.0,83,0.00,,,0.00,,2013-02-05 17:52:00,
2013-02-05 13:02:00,27.0,23.0,29.84,South,177,8.0,10.0,83,0.00,,,0.00,,2013-02-05 18:02:00,
2013-02-05 13:11:00,27.0,23.0,29.84,South,177,8.0,10.0,83,0.00,,,0.00,,2013-02-05 18:11:00,
2013-02-05 13:22:00,27.0,22.0,29.83,SE,132,11.0,17.0,82,0.00,,,0.00,,2013-02-05 18:22:00,
2013-02-05 13:32:00,27.0,22.0,29.82,SSW,193,8.0,16.0,82,0.01,,,0.01,,2013-02-05 18:32:00,
2013-02-05 13:42:00,27.0,22.0,29.82,SSW,193,8.0,16.0,82,0.01,,,0.01,,2013-02-05 18:42:00,
2013-02-05 13:52:00,28.0,23.0,29.81,South,180,9.0,16.0,81,0.01,,,0.01,,2013-02-05 18:52:00,
2013-02-05 14:02:00,28.0,23.0,29.80,SSE,165,10.0,18.0,80,0.01,,,0.01,,2013-02-05 19:02:00,
2013-02-05 14:11:00,28.0,23.0,29.80,SSE,165,10.0,18.0,80,0.01,,,0.01,,2013-02-05 19:11:00,
2013-02-05 14:22:00,29.0,23.0,29.80,SSW,196,13.0,18.0,79,0.02,,,0.02,,2013-02-05 19:22:00,
2013-02-05 14:32:00,29.0,23.0,29.79,South,189,12.0,19.0,79,0.01,,,0.02,,2013-02-05 19:32:00,
2013-02-05 14:42:00,29.0,23.0,29.79,South,189,12.0,19.0,79,0.01,,,0.02,,2013-02-05 19:42:00,
2013-02-05 14:52:00,29.0,23.0,29.79,South,186,9.0,16.0,79,0.01,,,0.02,,2013-02-05 19:52:00,
2013-02-05 15:02:00,29.0,23.0,29.79,South,191,9.0,13.0,79,0.01,,,0.02,,2013-02-05 20:02:00,
2013-02-05 15:11:00,29.0,23.0,29.79,South,191,9.0,13.0,79,0.01,,,0.02,,2013-02-05 20:11:00,
2013-02-05 15:21:00,29.0,23.0,29.79,SSW,205,7.0,14.0,79,0.00,,,0.02,,2013-02-05 20:21:00,
2013-02-05 15:32:00,30.0,24.0,29.79,SSW,193,7.0,12.0,77,0.00,,,0.02,,2013-02-05 20:32:00,
2013-02-05 15:42:00,30.0,24.0,29.79,SSW,193,7.0,12.0,77,0.00,,,0.02,,2013-02-05 20:42:00,
2013-02-05 15:52:00,30.0,24.0,29.80,SSW,195,8.0,11.0,78,0.00,,,0.02,,2013-02-05 20:52:00,
2013-02-05 16:02:00,30.0,25.0,29.80,SW,224,6.0,12.0,80,0.00,,,0.02,,2013-02-05 21:02:00,
2013-02-05 16:11:00,30.0,25.0,29.80,SW,224,6.0,12.0,80,0.00,,,0.02,,2013-02-05 21:11:00,
2013-02-05 16:22:00,30.0,24.0,29.80,WSW,248,6.0,12.0,79,0.00,,,0.02,,2013-02-05 21:22:00,
2013-02-05 16:32:00,30.0,26.0,29.81,SW,221,6.0,11.0,84,0.00,,,0.02,,2013-02-05 21:32:00,
2013-02-05 16:42:00,30.0,26.0,29.81,SW,221,6.0,11.0,84,0.00,,,0.02,,2013-02-05 21:42:00,
2013-02-05 16:52:00,29.0,26.0,29.82,WSW,247,6.0,10.0,89,0.00,,,0.02,,2013-02-05 21:52:00,
2013-02-05 17:01:00,29.0,27.0,29.82,West,263,3.0,7.0,92,0.00,,,0.02,,2013-02-05 22:01:00,
2013-02-05 17:11:00,29.0,27.0,29.82,West,263,3.0,7.0,92,0.00,,,0.02,,2013-02-05 22:11:00,
2013-02-05 17:22:00,29.0,27.0,29.82,WSW,248,5.0,8.0,93,0.00,,,0.02,,2013-02-05 22:22:00,
2013-02-05 17:32:00,29.0,27.0,29.83,WSW,257,5.0,8.0,93,0.00,,,0.02,,2013-02-05 22:32:00,
2013-02-05 17:42:00,29.0,27.0,29.83,WSW,257,5.0,8.0,93,0.00,,,0.02,,2013-02-05 22:42:00,
2013-02-05 17:52:00,29.0,27.0,29.83,WSW,244,4.0,7.0,94,0.00,,,0.02,,2013-02-05 22:52:00,
2013-02-05 18:02:00,29.0,27.0,29.83,WSW,246,3.0,8.0,94,0.00,,,0.02,,2013-02-05 23:02:00,
2013-02-05 18:11:00,29.0,27.0,29.83,WSW,246,3.0,8.0,94,0.00,,,0.02,,2013-02-05 23:11:00,
2013-02-05 18:22:00,29.0,27.0,29.84,WSW,245,4.0,7.0,94,0.00,,,0.02,,2013-02-05 23:22:00,
2013-02-05 18:32:00,29.0,27.0,29.84,West,267,3.0,6.0,94,0.00,,,0.02,,2013-02-05 23:32:00,
2013-02-05 18:42:00,29.0,27.0,29.84,West,267,3.0,6.0,94,0.00,,,0.02,,2013-02-05 23:42:00,
2013-02-05 18:53:00,29.0,27.0,29.85,WSW,237,4.0,6.0,94,0.00,,,0.02,,2013-02-05 23:53:00,
2013-02-05 19:02:00,29.0,28.0,29.85,West,262,4.0,7.0,95,0.00,,,0.02,,2013-02-06 00:02:00,
2013-02-05 19:12:00,29.0,28.0,29.85,West,262,4.0,7.0,95,0.00,,,0.02,,2013-02-06 00:12:00,
2013-02-05 19:22:00,29.0,28.0,29.86,West,263,5.0,8.0,95,0.00,,,0.02,,2013-02-06 00:22:00,
2013-02-05 19:32:00,30.0,28.0,29.86,WSW,254,4.0,7.0,94,0.00,,,0.02,,2013-02-06 00:32:00,
2013-02-05 19:42:00,30.0,28.0,29.86,WSW,254,4.0,7.0,94,0.00,,,0.02,,2013-02-06 00:42:00,
2013-02-05 19:52:00,30.0,28.0,29.87,WSW,254,6.0,9.0,94,0.00,,,0.02,,2013-02-06 00:52:00,
2013-02-05 20:02:00,30.0,28.0,29.88,West,265,5.0,11.0,94,0.00,,,0.02,,2013-02-06 01:02:00,
2013-02-05 20:12:00,30.0,28.0,29.88,West,265,5.0,11.0,94,0.00,,,0.02,,2013-02-06 01:12:00,
2013-02-05 20:22:00,30.0,28.0,29.88,West,278,8.0,11.0,93,0.00,,,0.02,,2013-02-06 01:22:00,
2013-02-05 20:32:00,31.0,29.0,29.89,WNW,295,9.0,14.0,92,0.00,,,0.02,,2013-02-06 01:32:00,
2013-02-05 20:42:00,31.0,29.0,29.89,WNW,295,9.0,14.0,92,0.00,,,0.02,,2013-02-06 01:42:00,
2013-02-05 20:53:00,30.0,27.0,29.90,West,280,10.0,16.0,89,0.00,,,0.02,,2013-02-06 01:53:00,
2013-02-05 21:02:00,30.0,27.0,29.91,West,269,8.0,13.0,89,0.00,,,0.02,,2013-02-06 02:02:00,
2013-02-05 21:11:00,30.0,27.0,29.91,West,269,8.0,13.0,89,0.00,,,0.02,,2013-02-06 02:11:00,
2013-02-05 21:22:00,30.0,27.0,29.92,WNW,282,7.0,10.0,89,0.00,,,0.02,,2013-02-06 02:22:00,
2013-02-05 21:32:00,30.0,27.0,29.92,WNW,292,8.0,16.0,89,0.00,,,0.02,,2013-02-06 02:32:00,
2013-02-05 21:42:00,30.0,27.0,29.92,WNW,292,8.0,16.0,89,0.00,,,0.02,,2013-02-06 02:42:00,
2013-02-05 21:53:00,30.0,27.0,29.93,WNW,296,6.0,17.0,89,0.00,,,0.02,,2013-02-06 02:53:00,
2013-02-05 22:03:00,30.0,27.0,29.93,WNW,282,7.0,13.0,89,0.00,,,0.02,,2013-02-06 03:03:00,
2013-02-05 22:12:00,30.0,27.0,29.93,WNW,282,7.0,13.0,89,0.00,,,0.02,,2013-02-06 03:12:00,
2013-02-05 22:22:00,30.0,27.0,29.95,WNW,300,9.0,17.0,90,0.00,,,0.02,,2013-02-06 03:22:00,
2013-02-05 22:32:00,30.0,27.0,29.96,WNW,283,9.0,19.0,90,0.00,,,0.02,,2013-02-06 03:32:00,
2013-02-05 22:42:00,30.0,27.0,29.96,WNW,283,9.0,19.0,90,0.00,,,0.02,,2013-02-06 03:42:00,
2013-02-05 22:53:00,30.0,28.0,29.96,NW,309,8.0,15.0,91,0.00,,,0.02,,2013-02-06 03:53:00,
2013-02-05 23:02:00,29.0,27.0,29.96,West,261,8.0,14.0,91,0.00,,,0.02,,2013-02-06 04:02:00,
2013-02-05 23:11:00,29.0,27.0,29.96,West,261,8.0,14.0,91,0.00,,,0.02,,2013-02-06 04:11:00,
2013-02-05 23:22:00,29.0,26.0,29.97,WNW,296,8.0,12.0,90,0.00,,,0.02,,2013-02-06 04:22:00,
2013-02-05 23:32:00,29.0,27.0,29.97,WNW,302,9.0,15.0,91,0.00,,,0.02,,2013-02-06 04:32:00,
2013-02-05 23:42:00,29.0,27.0,29.97,WNW,302,9.0,15.0,91,0.00,,,0.02,,2013-02-06 04:42:00,
2013-02-05 23:52:00,29.0,27.0,29.98,West,271,9.0,14.0,92,0.00,,,0.02,,2013-02-06 04:52:00,